User: anonymous   Login
Location: Lombard
(41.8800°N, 88.0080°W)
Time: 23:43:51
(UTC-06:00)
Language:

Transit 2A - Orbit

View from above orbital plane
View from above orbital plane
View from above satellite
View from above satellite

Ground track
Ground track

The orbit data is extracted from the following two-line orbital elements,

1 00045U 60007A   23036.90850293  .00000964  00000-0  26348-3 0  9997
2 00045  66.6956   1.5503 0258011 332.7784  25.9980 14.34045470203958
Epoch (UTC): 05 February 2023 21:48:14
Eccentricity: 0.0258011
inclination: 66.6956°
perigee height: 593 km
apogee height: 963 km
right ascension of ascending node: 1.5503°
argument of perigee: 332.7784°
revolutions per day: 14.34045470
mean anomaly at epoch: 25.9980°
orbit number at epoch: 20395

The dashed part of the orbit path shows where the satellite is in the earth's shadow,  

DLR